Time,TemperatureF,DewpointF,PressureIn,WindDirection,WindDirectionDegrees,WindSpeedMPH,WindSpeedGustMPH,Humidity,HourlyPrecipIn,Conditions,Clouds,dailyrainin,SoftwareType,DateUTC
2013-10-01 18:42:00,57.0,32.0,29.65,ENE,75,5.0,12.0,38,0.00,,,0.05,,2013-10-02 00:42:00,
2013-10-01 18:52:00,56.0,32.0,29.64,ENE,61,0.0,11.0,40,0.00,,,0.05,,2013-10-02 00:52:00,
2013-10-01 19:12:00,55.0,32.0,29.65,NE,38,7.0,11.0,41,0.00,,,0.05,,2013-10-02 01:12:00,
2013-10-01 19:21:00,54.0,33.0,29.65,SE,136,4.0,6.0,44,0.00,,,0.01,,2013-10-02 01:21:00,
2013-10-01 19:42:00,54.0,33.0,29.66,South,172,7.0,10.0,44,0.00,,,0.01,,2013-10-02 01:42:00,
2013-10-01 19:52:00,54.0,33.0,29.67,SSE,162,7.0,11.0,44,0.00,,,0.01,,2013-10-02 01:52:00,
2013-10-01 20:11:00,54.0,33.0,29.67,ESE,120,3.0,8.0,45,0.00,,,0.01,,2013-10-02 02:11:00,
2013-10-01 20:22:00,53.0,33.0,29.67,NNE,33,5.0,7.0,46,0.00,,,0.01,,2013-10-02 02:22:00,
2013-10-01 20:42:00,53.0,32.0,29.68,North,360,0.0,4.0,44,0.00,,,0.01,,2013-10-02 02:42:00,
2013-10-01 20:52:00,54.0,32.0,29.68,ENE,78,3.0,6.0,43,0.00,,,0.01,,2013-10-02 02:52:00,
2013-10-01 21:12:00,53.0,34.0,29.68,West,265,1.0,5.0,48,0.00,,,0.01,,2013-10-02 03:12:00,
2013-10-01 21:22:00,52.0,32.0,29.68,South,171,4.0,7.0,47,0.00,,,0.01,,2013-10-02 03:22:00,
2013-10-01 21:54:00,51.0,34.0,29.68,SSE,157,5.0,7.0,51,0.00,,,0.01,,2013-10-02 03:54:00,
2013-10-01 22:13:00,51.0,33.0,29.68,South,189,3.0,6.0,49,0.00,,,0.01,,2013-10-02 04:13:00,
2013-10-01 22:24:00,49.0,34.0,29.68,NW,325,2.0,5.0,56,0.00,,,0.00,,2013-10-02 04:24:00,
2013-10-01 22:44:00,48.0,34.0,29.68,West,273,1.0,3.0,57,0.00,,,0.00,,2013-10-02 04:44:00,
2013-10-01 22:54:00,48.0,33.0,29.68,WSW,240,0.0,4.0,56,0.00,,,0.00,,2013-10-02 04:54:00,
2013-10-01 23:13:00,48.0,33.0,29.68,West,269,5.0,9.0,56,0.00,,,0.00,,2013-10-02 05:13:00,
2013-10-01 23:22:00,48.0,33.0,29.68,SW,232,1.0,12.0,55,0.00,,,0.00,,2013-10-02 05:22:00,
2013-10-01 23:42:00,48.0,33.0,29.69,WSW,237,6.0,10.0,56,0.00,,,0.00,,2013-10-02 05:42:00,
2013-10-01 23:53:00,48.0,34.0,29.69,WNW,300,4.0,11.0,57,0.00,,,0.00,,2013-10-02 05:53:00,